Regional Weather Roundup
Issued by NWS Kansas City/Pleasant Hill, MO

Home | Current Version | Previous Version | Graphics & Text | Print | Product List | Glossary Off
Versions: 1 2 3 4 5 6 7 8 9 10 11 12 13 14 15 16 17 18 19 20 21 22 23 24 25 26 27 28 29 30 31 32 33 34 35 36 37 38 39 40 41 42 43 44 45 46 47 48 49 50

389
ASUS43 KEAX 282310
RWREAX

WEATHER ROUNDUP FOR EASTERN KANSAS AND NORTHWEST MISSOURI
NATIONAL WEATHER SERVICE KANSAS CITY/PLEASANT HILL MO
600 PM CDT TUE MAR 28 2017

KSZ040-057-103>105-MOZ028-029-037-043-290000-
...KANSAS CITY METROPOLITAN AREA...

CITY           SKY/WX    TMP DP  RH WIND       PRES   REMARKS
K.C. INTL      CLOUDY    53  50  89 E10       30.02R
K.C. DOWNTOWN  CLOUDY    54  50  86 NE12      30.00R
LEES SUMMIT    CLOUDY    53  51  93 E10       30.01R
OLATHE - IXD   LGT RAIN  53  50  89 NE10      30.00R FOG
OLATHE - OJC   CLOUDY    52  51  97 E10       30.00R
LAWRENCE       CLOUDY    54  51  90 E14       30.01R

$$

MOZ001>008-011>017-020>025-030>033-038>040-044>046-053-054-290000-
...NORTHERN AND CENTRAL MISSOURI...

CITY           SKY/WX    TMP DP  RH WIND       PRES   REMARKS
ST. JOSEPH     CLOUDY    53  49  86 E12       30.03R
WARRENSBURG    CLOUDY    55  50  82 NE13      30.00S
WHITEMAN AFB   CLOUDY    56  56  99 E12       29.99S
CLINTON        CLOUDY    59  52  77 NE12      29.99R
SEDALIA        CLOUDY    57  51  80 E10       30.01F
WARSAW         NOT AVBL
CHILLICOTHE      N/A     54  49  83 E8        30.06S
KIRKSVILLE     CLOUDY    52  48  86 NE10      30.07F

$$

MOZ041-047>049-056>058-063>065-088>090-097-290000-
...EASTERN AND SOUTHERN MISSOURI...

CITY           SKY/WX    TMP DP  RH WIND       PRES   REMARKS
ST. LOUIS INTL CLOUDY    59  48  67 NE9       30.07R
SPIRIT OF STL  CLOUDY    58  50  75 NE6       30.06R
COLUMBIA       CLOUDY    58  51  78 E9        30.03S
JEFFERSON CITY CLOUDY    60  49  66 E9        30.03S
ROLLA          CLOUDY    56  50  80 NE10G30   30.01F
OSAGE BEACH    CLOUDY    59  50  72 E10       30.00F
SPRINGFIELD    SUNNY     67  50  54 E13       29.91S
BRANSON        MOSUNNY   68  52  56 E10       29.92S
JOPLIN         SUNNY     67  53  61 NE10      29.90R
WEST PLAINS    SUNNY     66  49  54 E8        29.97S

$$

IAZ060-094-KSZ022-034>040-054-083-096-NEZ052-066-093-290000-
...KANSAS...SOUTHEAST NEBRASKA AND IOWA...

CITY           SKY/WX    TMP DP  RH WIND       PRES   REMARKS
TOPEKA         CLOUDY    55  50  83 E10       30.02R
MANHATTAN      CLOUDY    54  47  77 NE7       30.02R
EMPORIA        CLOUDY    54  50  86 NE9       29.95S
CHANUTE        CLOUDY    63  49  60 E14       29.91S
WICHITA        CLOUDY    54  49  83 NE20      29.87F
OMAHA          CLOUDY    51  41  68 E8        30.08R
LINCOLN        CLOUDY    50  41  71 NE10      30.08R
FALLS CITY     CLOUDY    52  46  80 E9        30.03R
LAMONI         CLOUDY    54  45  71 NE10      30.05F
DES MOINES     CLOUDY    52  42  69 NE8       30.10S

$$





USA.gov is the U.S. government's official web portal to all federal, state and local government web resources and services.